EW9154 Weather Reports


time (UTC)temp
C
wind
direction
speed
KPH
gust
KPH
rain 1hr
cm
rain 24hr
cm
rain mn
cm
humidity
%
barometer
mb
20260902135051 20 30 0.0 0.0 0.00 0.15 0.15 87 1026.8
20260902134522 20 59 0.0 0.0 0.00 0.15 0.15 87 1026.6
20260902134021 20 90 0.0 0.0 0.00 0.15 0.15 88 1026.5
20260902133455 20 95 0.0 0.0 0.00 0.15 0.15 89 1026.5
20260902132955 19 56 0.0 0.0 0.00 0.15 0.15 90 1026.6
20260902132454 19 26 0.0 0.0 0.00 0.15 0.15 90 1026.5
20260902131947 19 23 0.0 0.0 0.00 0.15 0.15 90 1026.6
20260902131421 19 23 0.0 0.0 0.00 0.15 0.15 90 1026.6
20260902131123 19 74 0.0 0.0 0.00 0.15 0.15 90 1026.6
20260902130623 18 71 0.0 0.0 0.00 0.15 0.15 91 1026.6
20260902125830 18 71 0.0 0.0 0.00 0.15 0.15 92 1026.7
20260902125331 18 71 0.0 0.0 0.00 0.15 0.15 92 1026.7
20260902124824 18 71 0.0 0.0 0.00 0.15 0.15 92 1026.5
20260902124301 18 64 0.0 0.0 0.00 0.15 0.15 92 1026.6
20260902124008 18 101 0.0 0.0 0.00 0.15 0.15 92 1026.6
20260902123206 18 101 0.0 0.0 0.00 0.15 0.15 92 1026.5
20260902122933 18 100 0.0 0.0 0.00 0.15 0.15 92 1026.4
20260902122153 18 105 0.0 0.0 0.00 0.15 0.15 93 1026.3
20260902121644 18 90 0.0 0.0 0.00 0.15 0.15 93 1026.2
20260902121141 18 101 0.0 0.0 0.00 0.15 0.15 93 1026.2
20260902120634 18 106 0.0 0.0 0.00 0.15 0.15 93 1026.3
20260902120133 18 105 0.0 0.0 0.00 0.15 0.15 93 1026.3
20260902115628 18 115 0.0 0.0 0.00 0.15 0.15 93 1026.4
20260902115401 18 115 0.0 0.0 0.00 0.15 0.15 93 1026.5
20260902114605 18 120 0.0 0.0 0.00 0.15 0.15 93 1026.4
20260902114036 18 111 0.0 0.0 0.00 0.15 0.15 93 1026.4
20260902113535 18 111 0.0 0.0 0.00 0.15 0.15 93 1026.5
20260902113006 18 110 0.0 0.0 0.00 0.15 0.15 93 1026.4
20260902112502 18 96 0.0 0.0 0.00 0.15 0.15 93 1026.5
20260902111952 18 98 0.0 0.0 0.00 0.15 0.15 93 1026.5
20260902111448 18 111 0.0 0.0 0.00 0.15 0.15 94 1026.8
20260902110922 18 218 0.0 0.0 0.00 0.15 0.15 93 1027.2
20260902110420 18 217 0.0 0.0 0.00 0.15 0.15 93 1027.5
20260902105920 18 217 0.0 0.0 0.00 0.15 0.15 93 1027.6
20260902105400 18 217 0.0 0.0 0.00 0.15 0.15 93 1027.4
20260902104856 18 217 0.0 0.0 0.00 0.15 0.15 93 1027.3
20260902104358 18 217 0.0 0.0 0.00 0.15 0.15 93 1026.9
20260902103834 18 217 0.0 0.0 0.00 0.15 0.15 93 1026.8
20260902103310 18 206 0.0 0.0 0.00 0.15 0.15 92 1027.0
20260902102804 18 194 0.0 0.0 0.00 0.15 0.15 92 1027.3
20260902102307 18 227 0.0 0.0 0.00 0.15 0.15 92 1027.5
20260902101755 18 227 0.0 0.0 0.00 0.15 0.15 92 1027.6
20260902101232 18 227 0.0 0.0 0.00 0.15 0.15 92 1027.5
20260902101002 18 227 0.0 0.0 0.00 0.15 0.15 92 1027.5
20260902100229 18 231 0.0 0.0 0.00 0.15 0.15 91 1027.4
20260902095957 18 234 0.0 0.0 0.00 0.15 0.15 91 1027.2
20260902095458 18 223 0.0 1.6 0.00 0.15 0.15 91 1027.2
20260902094930 18 194 0.0 3.2 0.00 0.15 0.15 91 1026.9
20260902094136 18 192 0.0 3.2 0.00 0.15 0.15 90 1026.5
20260902093636 18 211 0.0 1.6 0.00 0.15 0.15 90 1026.3
20260902093129 18 197 0.0 1.6 0.00 0.15 0.15 90 1026.2
20260902092630 18 211 0.0 1.6 0.00 0.15 0.15 90 1026.1
20260902092120 18 175 0.0 0.0 0.00 0.15 0.15 90 1026.0
20260902091848 18 198 0.0 0.0 0.00 0.15 0.15 90 1026.1
20260902091055 18 217 0.0 3.2 0.00 0.15 0.15 90 1026.1
20260902090536 18 169 0.0 6.4 0.00 0.15 0.15 89 1026.2
20260902090312 18 176 0.0 6.4 0.00 0.15 0.15 89 1026.3
20260902085517 18 217 0.0 0.0 0.00 0.15 0.15 89 1025.9
20260902085016 18 217 0.0 0.0 0.00 0.15 0.15 89 1025.8
20260902084512 18 174 0.0 0.0 0.00 0.15 0.15 88 1026.0
20260902083951 18 107 0.0 16.1 0.00 0.15 0.15 88 1025.3
20260902083423 18 61 0.0 16.1 0.00 0.15 0.15 88 1024.8
20260902082857 18 30 0.0 0.0 0.00 0.15 0.15 88 1024.9
20260902082837 18 37 0.0 1.6 0.00 0.15 0.15 88 1025.2
20260902081812 18 27 0.0 1.6 0.00 0.15 0.15 89 1025.2
20260902081304 18 38 0.0 1.6 0.03 0.15 0.15 89 1025.6
20260902081040 18 26 0.0 0.0 0.05 0.15 0.15 89 1025.6
20260902080251 18 26 0.0 0.0 0.08 0.15 0.15 89 1025.8
20260902075751 19 63 0.0 0.0 0.10 0.15 0.15 89 1025.9
20260902075521 19 94 0.0 0.0 0.10 0.15 0.15 90 1026.0
20260902074746 19 84 0.0 1.6 0.10 0.15 0.15 90 1026.1
20260902074246 19 94 0.0 1.6 0.13 0.15 0.15 90 1026.3
20260902073748 19 69 0.0 4.8 0.13 0.15 0.15 89 1026.6
20260902073224 18 101 0.0 4.8 0.15 0.15 0.15 89 1026.2
20260902072704 18 65 0.0 6.4 0.15 0.15 0.15 88 1025.8
20260902072205 19 86 0.0 6.4 0.15 0.15 0.15 89 1025.8
20260902071641 19 94 0.0 6.4 0.15 0.15 0.15 88 1026.0
20260902071127 19 127 0.0 6.4 0.13 0.13 0.13 87 1026.0
20260902070603 19 75 0.0 6.4 0.10 0.10 0.10 86 1026.3
20260902070041 20 90 0.0 6.4 0.08 0.08 0.08 86 1026.8
20260902065513 20 101 0.0 6.4 0.05 0.05 0.05 86 1027.3
20260902065456 20 113 0.0 1.6 0.05 0.05 0.05 86 1027.7
20260902064427 21 135 0.0 8.0 0.03 0.03 0.03 84 1028.2
20260902064147 21 217 0.0 8.0 0.03 0.03 0.03 84 1028.7
20260902063351 21 225 1.6 24.1 0.00 0.00 0.03 83 1029.1
20260902063055 21 192 4.8 24.1 0.00 0.00 0.00 83 1029.3
20260902062300 21 253 4.8 25.7 0.00 0.00 0.00 83 1030.0
20260902061758 22 236 1.6 25.7 0.00 0.00 0.00 83 1029.7
20260902061255 22 224 0.0 1.6 0.00 0.00 0.00 83 1028.9
20260902060734 22 13 0.0 0.0 0.00 0.00 0.00 82 1028.2
20260902060222 22 13 0.0 0.0 0.00 0.00 0.00 81 1027.7
20260902055701 22 40 0.0 0.0 0.00 0.00 0.00 80 1027.2
20260902055201 22 40 0.0 0.0 0.00 0.00 0.00 79 1026.8
20260902054659 22 40 0.0 0.0 0.00 0.00 0.00 79 1026.3
20260902054427 22 32 0.0 0.0 0.00 0.00 0.00 80 1025.9
20260902054144 22 28 0.0 0.0 0.00 0.00 0.00 81 1025.9
20260902053139 22 21 0.0 0.0 0.00 0.00 0.00 81 1026.3
20260902052638 22 22 0.0 0.0 0.00 0.00 0.00 81 1026.5
20260902052116 23 224 0.0 0.0 0.00 0.00 0.00 79 1026.7
20260902051846 23 224 0.0 0.0 0.00 0.00 0.00 79 1026.8
20260902051114 23 224 0.0 0.0 0.00 0.00 0.00 79 1027.0
20260902050615 23 224 0.0 0.0 0.00 0.00 0.00 78 1027.8
20260902050344 23 224 0.0 0.0 0.00 0.00 0.00 78 1027.9
20260902045609 23 224 0.0 0.0 0.00 0.00 0.00 78 1028.1
20260902045106 23 224 0.0 0.0 0.00 0.00 0.00 78 1028.0
20260902044550 23 224 0.0 0.0 0.00 0.00 0.00 78 1027.4
20260902044048 23 224 0.0 0.0 0.00 0.00 0.00 77 1026.8
20260902043543 23 224 0.0 0.0 0.00 0.00 0.00 78 1026.8
20260902043313 23 224 0.0 0.0 0.00 0.00 0.00 79 1026.7
20260902042540 23 224 0.0 0.0 0.00 0.00 0.00 81 1026.5
20260902042038 23 224 0.0 0.0 0.00 0.00 0.00 81 1026.5
20260902041539 23 224 0.0 0.0 0.00 0.00 0.00 83 1026.6
20260902041040 23 224 0.0 0.0 0.00 0.00 0.00 83 1026.4
20260902040516 23 224 0.0 0.0 0.00 0.00 0.00 82 1026.4
20260902040244 23 224 0.0 0.0 0.00 0.00 0.00 81 1026.5
20260902035449 23 224 0.0 0.0 0.00 0.00 0.00 81 1026.6
20260902034924 23 224 0.0 0.0 0.00 0.00 0.00 82 1026.5
20260902034419 23 224 0.0 0.0 0.00 0.00 0.00 81 1026.4
20260902033916 23 224 0.0 0.0 0.00 0.00 0.00 79 1026.6
20260902033402 23 224 0.0 0.0 0.00 0.00 0.00 76 1026.7
20260902032901 23 224 0.0 0.0 0.00 0.00 0.00 75 1026.9
20260902032355 23 224 0.0 0.0 0.00 0.00 0.00 74 1027.3
20260902031854 23 224 0.0 0.0 0.00 0.00 0.00 75 1027.4
20260902031328 24 224 0.0 0.0 0.00 0.00 0.00 75 1027.4
20260902030807 24 224 0.0 0.0 0.00 0.00 0.00 75 1027.4
20260902030542 24 224 0.0 0.0 0.00 0.00 0.00 75 1027.3
20260902025744 24 224 0.0 0.0 0.00 0.00 0.00 75 1027.3
20260902025215 24 224 0.0 0.0 0.00 0.00 0.00 75 1027.2
20260902024714 24 224 0.0 0.0 0.00 0.00 0.00 75 1027.0
20260902024147 24 224 0.0 0.0 0.00 0.00 0.00 75 1027.0
20260902023620 24 224 0.0 0.0 0.00 0.00 0.00 74 1027.0
20260902023109 24 224 0.0 0.0 0.00 0.00 0.00 74 1027.0
20260902022608 24 224 0.0 0.0 0.00 0.00 0.00 74 1026.9
20260902022104 24 224 0.0 0.0 0.00 0.00 0.00 74 1026.9
20260902021832 24 224 0.0 0.0 0.00 0.00 0.00 74 1026.9
20260902021040 25 224 0.0 0.0 0.00 0.00 0.00 74 1027.0
20260902020540 25 224 0.0 0.0 0.00 0.00 0.00 73 1027.2
20260902020041 25 224 0.0 0.0 0.00 0.00 0.00 73 1027.0
20260902015810 25 224 0.0 0.0 0.00 0.00 0.00 72 1027.0
20260902015307 25 224 0.0 0.0 0.00 0.00 0.00 72 1027.0
20260902014534 25 224 0.0 0.0 0.00 0.00 0.00 73 1026.9
20260902014029 25 224 0.0 0.0 0.00 0.00 0.00 73 1026.8
20260902013527 25 224 0.0 0.0 0.00 0.00 0.00 72 1026.7
20260902013000 25 224 0.0 0.0 0.00 0.00 0.00 72 1026.7
20260902012424 25 224 0.0 0.0 0.00 0.00 0.00 72 1026.8
20260902011906 25 224 0.0 0.0 0.00 0.00 0.00 72 1026.8
20260902011407 25 224 0.0 0.0 0.00 0.00 0.00 71 1026.8
20260902010905 25 224 0.0 0.0 0.00 0.00 0.00 71 1026.7
20260902010638 26 224 0.0 0.0 0.00 0.00 0.00 70 1026.6
20260902005847 26 224 0.0 0.0 0.00 0.00 0.00 69 1026.7
20260902005536 26 224 0.0 0.0 0.00 0.00 0.00 68 1026.6
20260902004801 26 224 0.0 0.0 0.00 0.00 0.00 68 1026.6
20260902004259 26 224 0.0 0.0 0.00 0.00 0.00 68 1026.6
20260902003755 26 224 0.0 0.0 0.00 0.00 0.00 67 1026.7
20260902003254 26 224 0.0 0.0 0.00 0.00 0.00 66 1026.6
20260902002733 26 224 0.0 0.0 0.00 0.00 0.00 66 1026.6
20260902002153 27 224 0.0 0.0 0.00 0.00 0.00 66 1026.7
20260902001649 27 224 0.0 0.0 0.00 0.00 0.00 65 1026.7
20260902001146 27 224 0.0 0.0 0.00 0.00 0.00 65 1026.8
20260902000642 27 224 0.0 0.0 0.00 0.00 0.00 65 1026.9
20260902000141 27 224 0.0 0.0 0.00 0.00 0.00 65 1026.9
20260901235621 27 224 0.0 0.0 0.00 0.00 0.00 64 1027.0
20260901235317 27 224 0.0 0.0 0.00 0.00 0.00 63 1027.0
20260901234545 27 224 0.0 0.0 0.00 0.00 0.00 62 1027.0
20260901234522 27 224 0.0 0.0 0.00 0.00 0.00 62 1027.0
20260901233451 27 224 0.0 0.0 0.00 0.00 0.00 61 1027.0
20260901233220 27 224 0.0 0.0 0.00 0.00 0.00 61 1027.0
20260901232423 27 224 0.0 0.0 0.00 0.00 0.00 61 1027.0
20260901231910 27 224 0.0 0.0 0.00 0.00 0.00 61 1026.9
20260901231411 27 224 0.0 0.0 0.00 0.00 0.00 61 1027.0
20260901230847 27 224 0.0 0.0 0.00 0.00 0.00 60 1026.9
20260901230319 28 224 0.0 0.0 0.00 0.00 0.00 60 1026.9
20260901230049 28 224 0.0 0.0 0.00 0.00 0.00 60 1026.9
20260901225250 28 224 0.0 0.0 0.00 0.00 0.00 61 1027.0
20260901224751 28 224 0.0 0.0 0.00 0.00 0.00 60 1027.0
20260901224747 28 224 0.0 0.0 0.00 0.00 0.00 61 1027.0
20260901223741 28 224 0.0 0.0 0.00 0.00 0.00 59 1027.0
20260901223233 28 224 0.0 0.0 0.00 0.00 0.00 59 1027.0
20260901222732 28 224 0.0 0.0 0.00 0.00 0.00 58 1027.0
20260901222227 28 224 0.0 0.0 0.00 0.00 0.00 58 1027.0
20260901221726 28 224 0.0 0.0 0.00 0.00 0.00 57 1027.0
20260901221428 28 224 0.0 0.0 0.00 0.00 0.00 56 1026.9
20260901220655 28 224 0.0 0.0 0.00 0.00 0.00 57 1027.0
20260901220126 28 224 0.0 0.0 0.00 0.00 0.00 57 1027.0
20260901215602 28 224 0.0 0.0 0.00 0.00 0.00 55 1026.9
20260901215033 29 224 0.0 0.0 0.00 0.00 0.00 56 1027.0
20260901214532 29 224 0.0 0.0 0.00 0.00 0.00 56 1026.9
20260901214003 29 224 0.0 0.0 0.00 0.00 0.00 55 1026.9
20260901213502 29 224 0.0 0.0 0.00 0.00 0.00 55 1026.9
20260901213219 29 224 0.0 0.0 0.00 0.00 0.00 55 1026.9
20260901212721 29 224 0.0 0.0 0.00 0.00 0.00 56 1026.9
20260901211926 29 224 0.0 0.0 0.00 0.00 0.00 55 1026.9
20260901211359 29 224 0.0 0.0 0.00 0.00 0.00 56 1026.9
20260901210831 28 224 0.0 0.0 0.00 0.00 0.00 55 1027.0
20260901210329 28 224 0.0 0.0 0.00 0.00 0.00 55 1026.9
20260901205801 28 224 0.0 0.0 0.00 0.00 0.00 55 1026.9
20260901205257 28 224 0.0 0.0 0.00 0.00 0.00 55 1026.9
20260901204748 29 224 0.0 0.0 0.00 0.00 0.00 57 1026.9
20260901204247 29 224 0.0 0.0 0.00 0.00 0.00 56 1026.9
20260901203721 29 224 0.0 0.0 0.00 0.00 0.00 57 1026.8
20260901203153 29 224 0.0 0.0 0.00 0.00 0.00 52 1027.0
20260901202650 29 224 0.0 0.0 0.00 0.00 0.00 53 1027.3
20260901202352 29 224 0.0 0.0 0.00 0.00 0.00 52 1027.4
20260901201613 29 224 0.0 0.0 0.00 0.00 0.00 52 1027.6
20260901201110 29 224 0.0 0.0 0.00 0.00 0.00 53 1027.5
20260901200553 29 224 0.0 0.0 0.00 0.00 0.00 54 1027.4
20260901200548 29 224 0.0 0.0 0.00 0.00 0.00 53 1027.5
20260901195545 29 224 0.0 0.0 0.00 0.00 0.00 52 1027.3
20260901195027 29 224 0.0 0.0 0.00 0.00 0.00 53 1027.3
20260901194531 29 224 0.0 0.0 0.00 0.00 0.00 54 1027.4
20260901194234 29 224 0.0 0.0 0.00 0.00 0.00 55 1027.5
20260901193502 29 224 0.0 0.0 0.00 0.00 0.00 53 1027.7
20260901192944 29 247 0.0 0.0 0.00 0.00 0.00 53 1027.8
20260901192439 30 213 0.0 0.0 0.00 0.00 0.00 53 1027.6
20260901191939 30 215 0.0 0.0 0.00 0.00 0.00 52 1027.7
20260901191415 30 226 0.0 0.0 0.00 0.00 0.00 49 1027.8
20260901190913 31 234 0.0 0.0 0.00 0.00 0.00 48 1027.7
20260901190416 31 234 0.0 0.0 0.00 0.00 0.00 48 1027.8
20260901185852 31 234 0.0 0.0 0.00 0.00 0.00 47 1027.8
20260901185325 31 234 0.0 0.0 0.00 0.00 0.00 45 1027.8
20260901184807 32 234 0.0 0.0 0.00 0.00 0.00 45 1027.8
20260901184801 31 234 0.0 0.0 0.00 0.00 0.00 45 1027.7
20260901183802 32 234 0.0 0.0 0.00 0.00 0.00 43 1027.7
20260901183510 32 234 0.0 0.0 0.00 0.00 0.00 42 1027.3
20260901182739 32 234 0.0 0.0 0.00 0.00 0.00 45 1027.5
20260901182218 32 234 0.0 0.0 0.00 0.00 0.00 44 1027.5
20260901181716 31 234 0.0 0.0 0.00 0.00 0.00 47 1027.7
20260901181210 31 234 0.0 0.0 0.00 0.00 0.00 45 1027.9
20260901181151 31 234 0.0 0.0 0.00 0.00 0.00 48 1028.0
20260901180129 31 234 0.0 0.0 0.00 0.00 0.00 50 1028.1
20260901175603 30 234 0.0 0.0 0.00 0.00 0.00 49 1028.1
20260901175048 31 234 0.0 0.0 0.00 0.00 0.00 47 1028.3
20260901175044 30 234 0.0 0.0 0.00 0.00 0.00 47 1028.2
20260901174043 31 234 0.0 0.0 0.00 0.00 0.00 46 1028.3
20260901173518 31 234 0.0 0.0 0.00 0.00 0.00 45 1028.2
20260901172953 30 234 0.0 0.0 0.00 0.00 0.00 47 1028.4
20260901172430 30 234 0.0 0.0 0.00 0.00 0.00 48 1028.5
20260901171930 30 234 0.0 0.0 0.00 0.00 0.00 45 1028.5
20260901171432 31 234 0.0 0.0 0.00 0.00 0.00 46 1028.5
20260901170922 30 234 0.0 0.0 0.00 0.00 0.00 45 1028.5
20260901170906 30 234 0.0 0.0 0.00 0.00 0.00 47 1028.5
20260901170545 30 234 0.0 0.0 0.00 0.00 0.00 50 1028.5
20260901165249 30 234 0.0 0.0 0.00 0.00 0.00 49 1028.5
20260901164720 30 234 0.0 0.0 0.00 0.00 0.00 51 1028.5
20260901164155 29 233 0.0 0.0 0.00 0.00 0.00 53 1028.6
20260901163920 28 233 0.0 0.0 0.00 0.00 0.00 53 1028.6
20260901163146 28 208 0.0 0.0 0.00 0.00 0.00 53 1028.7
20260901162620 28 208 0.0 0.0 0.00 0.00 0.00 55 1028.6
20260901162055 27 208 0.0 0.0 0.00 0.00 0.00 56 1028.6
20260901161528 27 208 0.0 0.0 0.00 0.00 0.00 56 1028.6
20260901161026 27 227 0.0 0.0 0.00 0.00 0.00 56 1028.6
20260901160518 27 229 0.0 0.0 0.00 0.00 0.00 59 1028.6
20260901160014 27 228 0.0 0.0 0.00 0.00 0.00 58 1028.5
20260901155743 27 228 0.0 0.0 0.00 0.00 0.00 60 1028.4
20260901154944 27 228 0.0 0.0 0.00 0.00 0.00 61 1028.5
20260901154713 27 235 0.0 0.0 0.00 0.00 0.00 61 1028.4
20260901153914 26 235 0.0 0.0 0.00 0.00 0.00 63 1028.3
20260901153404 26 235 0.0 0.0 0.00 0.00 0.00 65 1028.4
20260901152900 26 235 0.0 0.0 0.00 0.00 0.00 65 1028.4
20260901152358 25 235 0.0 0.0 0.00 0.00 0.00 66 1028.6
20260901151857 25 235 0.0 0.0 0.00 0.00 0.00 68 1028.5
20260901151352 25 229 0.0 0.0 0.00 0.00 0.00 69 1028.5
20260901150848 25 225 0.0 0.0 0.00 0.00 0.00 70 1028.4
20260901150341 25 225 0.0 0.0 0.00 0.00 0.00 70 1028.6
20260901145837 24 259 0.0 0.0 0.00 0.00 0.00 72 1028.6
20260901145335 24 259 0.0 0.0 0.00 0.00 0.00 74 1028.6
20260901144806 23 265 0.0 0.0 0.00 0.00 0.00 75 1028.8
20260901144240 23 265 0.0 0.0 0.00 0.00 0.00 77 1028.7
20260901143714 23 266 0.0 1.6 0.00 0.00 0.00 77 1028.8
20260901143443 22 266 0.0 1.6 0.00 0.00 0.00 77 1028.8
20260901142710 22 199 0.0 0.0 0.00 0.00 0.00 80 1028.8
20260901142700 22 199 0.0 0.0 0.00 0.00 0.00 80 1028.7
20260901141701 22 221 0.0 0.0 0.00 0.00 0.00 80 1028.7
20260901141132 21 220 0.0 0.0 0.00 0.00 0.00 82 1028.9
20260901140859 21 213 0.0 0.0 0.00 0.00 0.00 82 1028.8
20260901140118 21 213 0.0 0.0 0.00 0.00 0.00 84 1028.9